CAPE
1228 1108 1169 1241 1214 944 1065 1032 1013 955 850 1144 1191 966 1046 1023 873 728 720 825 838 834 910 984 1073 1199 1030 691 723 803 800 808 894 915 896 894 820 531 291 725 746 664 592 390 279 449 328 181 29 415 287 21 2 3 2 4 2 1 0 0 0 0 0
1280 1095 876 740 845 849 1032 767 812 518 579 665 922 1136 1153 1071 1076 1047 1049 953 983 941 816 767 1027 1045 856 737 736 858 955 959 1012 1203 1204 1120 1071 931 595 716 764 643 469 640 548 550 296 221 160 122 13 14 6 4 5 3 2 2 2 0 0 0 0
892 674 793 830 770 793 1013 872 803 576 372 378 459 794 1042 1094 1046 1082 1015 961 1111 1013 855 750 1026 1174 1009 814 765 1184 1189 1246 1054 1146 1200 1337 1159 1174 950 845 806 556 499 457 559 480 267 320 186 103 71 119 5 2 3 2 2 2 0 1 0 0 0
923 810 819 741 574 720 841 777 750 602 423 346 344 511 924 884 1032 954 1042 1050 1049 954 774 857 1154 1212 1392 1247 941 921 1286 1269 1123 1185 1081 1112 1058 1052 870 782 857 702 628 585 538 668 478 220 191 155 151 12 3 4 0 0 0 0 0 0 0 0 0
925 874 916 743 535 689 845 708 536 384 275 231 339 465 670 758 858 834 800 792 799 946 1015 990 1038 944 987 904 1005 1177 953 802 971 915 1060 1096 1028 1100 924 840 856 830 767 894 787 877 706 339 214 123 30 5 3 0 0 0 0 0 0 0 0 0 0
948 1022 983 800 587 675 709 587 394 381 226 239 334 554 799 810 718 722 733 833 827 922 786 746 853 700 771 836 842 819 885 862 905 1024 1080 1243 1084 1076 968 731 600 492 670 884 828 877 807 381 239 108 16 7 1 0 0 0 0 0 0 0 0 0 0
934 1024 871 678 574 626 636 620 464 335 286 384 408 767 594 548 679 807 817 795 640 476 461 536 533 497 663 575 684 799 791 753 815 1090 1185 1176 1127 1278 1085 658 549 621 782 765 832 794 608 425 260 130 25 7 0 0 0 0 0 0 0 0 0 0 0
820 837 752 631 482 517 593 638 555 430 312 334 426 287 184 440 392 380 500 463 288 225 114 122 40 94 168 171 283 331 251 270 498 674 908 967 1015 857 1056 1097 885 719 776 732 720 706 565 551 376 185 54 11 0 0 0 0 0 0 0 0 0 0 0
604 697 495 294 332 455 451 538 475 499 508 289 189 130 124 283 321 334 190 116 10 0 0 1 0 0 8 105 62 140 86 143 194 236 258 363 635 710 907 988 848 765 752 676 738 724 573 631 515 311 196 16 0 0 0 0 0 0 0 0 0 0 0
509 525 375 258 210 248 397 541 473 244 152 204 109 93 106 161 291 252 107 1 0 0 0 0 0 0 0 0 1 1 0 0 1 0 6 105 109 302 624 840 984 857 663 748 656 756 753 612 517 451 167 18 0 0 0 0 0 0 0 0 0 0 0
496 533 438 275 154 131 160 170 135 64 97 71 37 3 78 78 95 34 76 0 0 0 0 0 0 0 0 0 0 0 0 0 0 0 0 3 13 162 339 474 684 650 567 633 740 748 640 552 406 262 108 73 5 0 0 0 0 0 0 0 0 0 0
522 385 385 251 184 227 178 144 168 160 38 2 0 2 42 58 30 10 7 0 0 0 0 0 0 0 0 0 0 0 0 0 0 0 0 0 0 82 378 606 635 706 616 772 697 586 578 471 371 136 28 3 17 106 0 0 0 0 0 0 0 0 0
481 331 302 214 241 372 228 169 98 77 120 3 6 19 38 16 1 0 0 0 0 0 0 0 0 0 0 0 0 0 0 1 0 0 0 0 0 80 329 512 533 615 641 673 656 610 531 421 323 92 26 11 13 201 24 0 0 0 0 0 0 0 0
389 352 259 265 369 386 226 115 129 131 17 16 0 0 2 0 0 0 0 0 0 0 0 0 0 0 0 0 0 0 0 0 0 0 0 0 0 7 93 277 323 394 532 753 700 665 479 423 366 357 105 32 34 51 7 0 0 0 0 0 0 0 0
222 267 303 247 346 197 139 74 35 13 67 3 0 0 0 0 0 0 0 0 0 0 0 0 0 0 0 0 0 0 0 0 0 0 1 0 0 0 22 67 58 122 298 636 666 441 447 310 140 138 153 108 67 22 30 5 1 0 0 0 0 0 0
194 234 246 212 244 150 132 31 1 38 45 0 0 0 0 0 0 0 0 0 0 0 0 0 0 0 0 0 0 0 0 0 0 0 0 0 0 0 0 2 12 30 67 406 420 360 337 296 145 89 250 214 238 118 8 0 1 0 0 0 0 0 0
245 228 232 212 270 197 84 13 1 28 9 0 0 0 0 0 0 0 0 0 0 0 0 0 0 0 0 0 0 0 0 0 0 0 0 0 0 0 0 0 0 1 36 171 74 150 165 248 316 252 370 459 339 224 114 2 0 12 0 0 0 0 0
252 285 224 226 281 144 65 9 0 0 0 0 0 0 0 0 0 0 0 0 0 0 0 0 0 0 12 12 0 0 0 0 0 0 0 0 6 0 4 3 0 0 0 1 0 0 0 1 10 18 60 49 53 177 51 23 6 0 0 0 0 0 0
304 291 252 243 144 82 26 5 0 0 0 0 0 0 0 0 0 0 0 0 0 0 0 0 0 0 0 6 9 8 1 0 0 0 0 0 0 0 7 1 25 39 35 43 94 110 15 3 0 0 0 0 0 3 1 1 0 0 0 0 0 0 0
382 298 123 29 1 0 0 0 0 0 0 0 0 0 0 0 0 0 0 0 0 0 0 0 0 14 8 12 14 5 9 4 0 2 1 0 0 0 0 0 24 62 14 10 87 136 134 71 0 0 0 0 0 0 0 0 0 0 0 0 0 0 0
412 245 76 0 0 0 0 0 0 0 0 0 0 0 0 0 0 0 1 5 9 10 6 0 1 5 7 32 44 57 53 51 2 7 13 0 0 0 0 3 8 10 6 10 34 120 192 112 54 23 4 0 0 0 0 0 0 0 0 0 0 0 0
47 0 0 0 3 2 0 0 0 0 0 0 0 0 1 0 0 0 0 1 0 14 32 64 41 42 32 38 54 90 71 10 26 18 53 26 21 10 1 12 40 24 204 46 0 66 78 103 107 100 35 0 0 0 0 0 0 0 0 0 0 0 0
51 0 0 0 0 3 12 34 39 2 0 0 0 0 0 0 0 0 0 0 6 42 67 138 14 0 0 35 83 28 82 123 76 75 105 175 316 117 84 186 234 14 0 0 0 0 0 0 0 432 240 40 7 0 0 0 0 0 0 0 0 0 0
40 93 0 0 0 0 0 0 0 4 0 0 0 0 0 0 0 2 2 10 41 72 124 3 0 0 0 0 2 134 111 223 206 203 219 219 169 439 609 295 429 128 0 0 0 0 0 0 0 0 0 2 13 62 66 24 4 0 0 0 0 0 0
19 14 2 3 2 0 4 10 11 9 6 0 0 0 0 0 0 0 0 0 14 50 26 0 0 0 0 0 0 16 82 158 316 300 312 387 453 583 701 837 691 564 665 684 534 58 0 0 0 0 0 0 0 0 0 134 236 107 30 2 0 0 0
9 3 8 9 4 0 0 0 0 3 9 3 12 0 1 0 0 1 19 22 45 23 0 0 0 0 0 0 0 0 8 88 80 209 326 383 454 602 736 728 848 706 428 12 6 150 102 133 110 11 1 0 0 0 0 0 0 139 199 50 18 39 12
2 0 2 6 0 0 0 2 4 17 32 34 33 36 0 0 0 0 10 59 22 0 2 0 0 0 0 0 0 0 8 81 140 176 196 249 399 490 629 632 632 746 874 476 475 490 243 161 179 180 179 116 132 217 176 0 0 0 0 42 123 152 215
10 3 1 10 8 2 1 5 28 46 45 48 48 58 52 7 0 0 0 0 0 0 1 0 0 0 0 0 0 0 0 11 91 176 217 196 173 212 252 252 293 368 578 622 548 420 377 391 320 230 169 226 284 56 272 0 0 0 0 0 0 95 226
7 2 5 5 9 4 11 24 35 42 46 42 38 42 42 44 44 40 0 0 0 0 0 0 0 0 0 0 0 0 0 19 151 264 313 296 243 277 241 292 355 420 507 523 215 0 12 90 196 204 246 296 312 255 0 0 0 0 0 0 0 0 7
12 1 2 2 1 13 18 26 22 18 51 55 24 6 82 81 80 76 22 0 0 0 0 0 0 0 0 0 0 0 0 1 54 190 397 385 287 257 272 229 314 390 525 569 153 0 0 0 85 180 221 289 150 144 136 25 0 0 0 0 0 0 0
10 7 4 2 0 1 3 1 7 0 0 0 0 0 0 9 27 86 97 18 11 66 74 82 66 65 0 0 0 0 0 0 0 4 169 292 240 236 227 342 369 372 372 478 336 319 342 340 313 308 300 273 244 242 234 218 143 0 0 0 0 0 0
1 4 8 7 0 1 0 0 0 0 2 14 6 1 0 0 0 0 1 0 3 14 4 10 30 45 30 0 0 0 0 0 0 0 0 15 84 175 221 70 190 376 448 475 456 423 379 332 285 220 330 334 301 336 327 270 193 55 0 0 0 0 0
4 7 7 1 6 3 1 0 1 2 4 0 12 13 0 0 0 0 0 1 0 0 0 0 0 1 3 10 14 0 0 0 0 0 0 0 0 1 12 113 22 0 14 222 322 320 277 250 237 198 158 210 247 255 364 157 140 0 0 0 0 0 0
2 2 2 1 4 9 11 10 3 1 1 2 1 0 0 1 1 0 0 0 1 1 0 0 0 0 1 1 1 0 0 0 1 1 2 1 0 0 0 0 43 0 0 0 0 0 65 195 211 133 8 90 204 201 59 47 88 15 0 0 0 11 0
1 0 0 0 1 3 5 9 11 4 4 7 7 9 8 11 4 3 4 0 0 4 2 0 0 0 0 0 0 0 0 0 0 0 0 0 0 0 0 0 2 0 0 0 0 0 0 109 142 142 102 93 92 93 6 4 53 44 7 0 0 2 2
6 6 4 4 3 4 4 3 4 2 2 4 4 9 12 14 11 8 6 4 5 2 1 0 2 1 1 0 0 0 0 0 0 0 0 0 0 0 1 2 1 0 0 0 0 0 23 87 117 134 108 63 75 110 96 95 92 74 62 42 35 60 45
2 0 0 1 0 0 0 0 0 0 0 0 0 0 0 0 0 1 0 0 0 0 0 0 0 0 0 0 0 0 0 0 0 0 0 0 0 0 0 1 1 0 0 0 0 0 0 0 0 63 72 0 74 132 178 176 132 120 99 77 63 87 92
Wind_Speed
23 24 23 23 25 24 22 23 23 21 21 20 19 18 17 17 17 15 14 14 13 13 12 11 11 12 13 12 9 9 9 8 7 6 8 9 7 8 7 6 7 8 7 7 6 6 8 11 nan 12 15 nan nan nan nan nan nan nan nan nan nan nan nan
24 25 24 24 24 24 24 23 22 21 21 20 19 19 19 19 18 17 16 15 14 14 12 13 12 12 12 12 10 10 9 9 7 6 7 8 7 10 9 8 8 8 8 7 7 7 9 11 11 13 nan nan nan nan nan nan nan nan nan nan nan nan nan
25 26 25 26 25 22 22 21 21 21 21 21 21 20 20 20 19 18 17 15 14 14 13 13 13 13 12 12 11 11 10 10 9 7 7 8 8 11 9 11 11 10 9 9 8 8 9 9 10 13 nan 13 nan nan nan nan nan nan nan nan nan nan nan
26 27 27 27 25 22 22 21 20 21 22 22 22 22 21 20 20 19 17 17 16 16 14 13 12 13 14 14 13 12 12 11 11 10 8 8 9 11 11 11 10 10 9 9 9 9 9 11 12 12 12 nan nan nan nan nan nan nan nan nan nan nan nan
25 24 25 25 24 24 23 22 22 22 23 24 23 23 21 20 20 19 19 19 18 16 15 14 14 14 16 16 15 13 13 12 11 10 9 10 10 11 10 11 11 11 11 9 10 10 10 11 12 14 nan nan nan nan nan nan nan nan nan nan nan nan nan
23 23 24 24 24 24 22 22 22 22 24 24 23 23 22 21 20 20 19 19 19 18 17 15 15 15 16 16 16 15 14 12 11 10 9 10 10 10 11 11 11 11 10 10 11 11 11 11 12 13 nan nan nan nan nan nan nan nan nan nan nan nan nan
22 22 22 23 24 23 21 21 22 23 23 24 24 24 23 21 19 19 19 20 20 19 17 16 16 16 16 16 17 17 15 12 10 10 10 11 10 10 12 11 10 10 11 10 11 10 11 11 11 13 nan nan nan nan nan nan nan nan nan nan nan nan nan
21 21 22 23 23 22 20 21 22 23 23 24 24 24 22 20 19 18 19 20 20 19 17 16 nan nan 15 15 17 18 16 12 11 10 11 12 11 11 11 10 10 9 10 9 9 9 9 10 12 14 nan nan nan nan nan nan nan nan nan nan nan nan nan
20 21 22 22 21 21 21 22 22 22 23 24 22 21 19 17 17 18 18 20 nan nan nan nan nan nan nan 15 nan 16 nan 14 14 14 14 14 14 13 12 11 10 10 10 9 8 9 9 10 12 14 14 nan nan nan nan nan nan nan nan nan nan nan nan
21 21 21 21 21 21 22 22 23 23 23 21 20 nan 17 16 16 17 18 nan nan nan nan nan nan nan nan nan nan nan nan nan nan nan nan 15 15 14 13 11 10 12 11 10 9 11 12 12 13 14 14 nan nan nan nan nan nan nan nan nan nan nan nan
21 21 21 22 22 22 23 23 23 nan nan nan nan nan nan nan nan nan nan nan nan nan nan nan nan nan nan nan nan nan nan nan nan nan nan nan nan 14 13 12 12 12 12 12 12 13 13 14 15 15 15 nan nan nan nan nan nan nan nan nan nan nan nan
20 20 20 22 21 21 23 21 21 23 nan nan nan nan nan nan nan nan nan nan nan nan nan nan nan nan nan nan nan nan nan nan nan nan nan nan nan nan 14 14 13 14 14 14 15 14 15 15 16 15 nan nan nan 16 nan nan nan nan nan nan nan nan nan
18 19 20 19 17 18 20 19 nan nan 24 nan nan nan nan nan nan nan nan nan nan nan nan nan nan nan nan nan nan nan nan nan nan nan nan nan nan nan 15 15 15 15 16 16 16 15 15 15 15 nan nan nan nan 15 nan nan nan nan nan nan nan nan nan
17 18 18 15 14 16 17 17 19 22 nan nan nan nan nan nan nan nan nan nan nan nan nan nan nan nan nan nan nan nan nan nan nan nan nan nan nan nan nan 17 17 18 17 17 17 16 15 15 15 14 15 nan nan nan nan nan nan nan nan nan nan nan nan
16 16 16 14 15 16 16 nan nan nan nan nan nan nan nan nan nan nan nan nan nan nan nan nan nan nan nan nan nan nan nan nan nan nan nan nan nan nan nan nan nan 19 17 17 17 16 16 15 14 13 14 13 nan nan nan nan nan nan nan nan nan nan nan
17 17 18 16 16 17 17 nan nan nan nan nan nan nan nan nan nan nan nan nan nan nan nan nan nan nan nan nan nan nan nan nan nan nan nan nan nan nan nan nan nan nan nan 18 17 17 16 14 13 nan 12 12 12 14 nan nan nan nan nan nan nan nan nan
18 18 18 17 18 18 nan nan nan nan nan nan nan nan nan nan nan nan nan nan nan nan nan nan nan nan nan nan nan nan nan nan nan nan nan nan nan nan nan nan nan nan nan 19 nan 17 16 14 13 12 12 13 13 14 15 nan nan nan nan nan nan nan nan
18 19 19 18 19 20 nan nan nan nan nan nan nan nan nan nan nan nan nan nan nan nan nan nan nan nan nan nan nan nan nan nan nan nan nan nan nan nan nan nan nan nan nan nan nan nan nan nan nan nan nan nan nan 17 nan nan nan nan nan nan nan nan nan
19 20 21 21 23 nan nan nan nan nan nan nan nan nan nan nan nan nan nan nan nan nan nan nan nan nan nan nan nan nan nan nan nan nan nan nan nan nan nan nan nan nan nan nan nan 20 nan nan nan nan nan nan nan nan nan nan nan nan nan nan nan nan nan
24 24 24 nan nan nan nan nan nan nan nan nan nan nan nan nan nan nan nan nan nan nan nan nan nan nan nan nan nan nan nan nan nan nan nan nan nan nan nan nan nan nan nan nan nan 21 21 nan nan nan nan nan nan nan nan nan nan nan nan nan nan nan nan
28 27 nan nan nan nan nan nan nan nan nan nan nan nan nan nan nan nan nan nan nan nan nan nan nan nan nan nan nan nan nan nan nan nan nan nan nan nan nan nan nan nan nan nan nan 22 22 22 nan nan nan nan nan nan nan nan nan nan nan nan nan nan nan
nan nan nan nan nan nan nan nan nan nan nan nan nan nan nan nan nan nan nan nan nan nan nan nan nan nan nan nan nan nan nan nan nan nan nan nan nan nan nan nan nan nan 22 nan nan nan nan 24 25 nan nan nan nan nan nan nan nan nan nan nan nan nan nan
nan nan nan nan nan nan nan nan nan nan nan nan nan nan nan nan nan nan nan nan nan nan nan 18 nan nan nan nan nan nan nan 18 nan nan 17 18 19 19 nan 22 23 nan nan nan nan nan nan nan nan 28 30 nan nan nan nan nan nan nan nan nan nan nan nan
nan nan nan nan nan nan nan nan nan nan nan nan nan nan nan nan nan nan nan nan nan nan 17 nan nan nan nan nan nan 19 18 19 20 19 19 18 19 21 23 25 26 26 nan nan nan nan nan nan nan nan nan nan nan nan nan nan nan nan nan nan nan nan nan
nan nan nan nan nan nan nan nan nan nan nan nan nan nan nan nan nan nan nan nan nan nan nan nan nan nan nan nan nan nan nan 21 22 21 21 21 23 24 26 29 30 30 28 28 28 nan nan nan nan nan nan nan nan nan nan 29 30 31 nan nan nan nan nan
nan nan nan nan nan nan nan nan nan nan nan nan nan nan nan nan nan nan nan nan nan nan nan nan nan nan nan nan nan nan nan nan nan 22 22 23 24 26 28 29 31 32 32 nan nan 31 32 34 34 nan nan nan nan nan nan nan nan 33 34 nan nan nan nan
nan nan nan nan nan nan nan nan nan nan nan nan nan nan nan nan nan nan nan nan nan nan nan nan nan nan nan nan nan nan nan nan 24 24 24 26 28 29 31 32 32 32 33 34 33 34 35 35 36 36 35 34 35 37 35 nan nan nan nan nan 34 33 35
nan nan nan nan nan nan nan nan nan nan nan nan nan nan nan nan nan nan nan nan nan nan nan nan nan nan nan nan nan nan nan nan nan 27 27 29 29 31 32 34 34 33 34 34 36 37 35 36 37 37 36 37 37 nan 39 nan nan nan nan nan nan nan 39
nan nan nan nan nan nan nan nan nan nan nan nan nan nan nan nan nan nan nan nan nan nan nan nan nan nan nan nan nan nan nan nan 30 30 30 30 31 32 34 35 35 35 35 35 38 nan nan nan 38 37 37 38 40 41 nan nan nan nan nan nan nan nan nan
nan nan nan nan nan nan nan nan nan nan nan nan nan nan nan nan nan nan nan nan nan nan nan nan nan nan nan nan nan nan nan nan nan 31 32 34 34 35 35 35 36 36 37 37 44 nan nan nan nan 39 40 41 43 44 44 nan nan nan nan nan nan nan nan
nan nan nan nan nan nan nan nan nan nan nan nan nan nan nan nan nan nan nan nan nan nan nan nan nan nan nan nan nan nan nan nan nan nan 34 35 36 37 38 40 38 38 39 42 52 47 47 45 43 43 44 45 47 47 48 55 55 nan nan nan nan nan nan
nan nan nan nan nan nan nan nan nan nan nan nan nan nan nan nan nan nan nan nan nan nan nan nan nan nan nan nan nan nan nan nan nan nan nan nan nan 39 41 nan 43 42 45 49 54 53 52 49 48 48 47 46 45 46 50 59 58 nan nan nan nan nan nan
nan nan nan nan nan nan nan nan nan nan nan nan nan nan nan nan nan nan nan nan nan nan nan nan nan nan nan nan nan nan nan nan nan nan nan nan nan nan nan 46 nan nan nan 49 51 54 55 54 53 54 54 51 49 48 52 59 58 nan nan nan nan nan nan
nan nan nan nan nan nan nan nan nan nan nan nan nan nan nan nan nan nan nan nan nan nan nan nan nan nan nan nan nan nan nan nan nan nan nan nan nan nan nan nan nan nan nan nan nan nan nan 57 58 57 nan nan 52 54 nan nan nan nan nan nan nan nan nan
nan nan nan nan nan nan nan nan nan nan nan nan nan nan nan nan nan nan nan nan nan nan nan nan nan nan nan nan nan nan nan nan nan nan nan nan nan nan nan nan nan nan nan nan nan nan nan 58 58 60 56 nan nan nan nan nan nan nan nan nan nan nan nan
nan nan nan nan nan nan nan nan nan nan nan nan nan nan nan nan nan nan nan nan nan nan nan nan nan nan nan nan nan nan nan nan nan nan nan nan nan nan nan nan nan nan nan nan nan nan nan nan 61 59 55 nan nan 62 nan nan nan nan nan nan nan nan nan
nan nan nan nan nan nan nan nan nan nan nan nan nan nan nan nan nan nan nan nan nan nan nan nan nan nan nan nan nan nan nan nan nan nan nan nan nan nan nan nan nan nan nan nan nan nan nan nan nan nan nan nan nan 65 63 65 66 66 nan nan nan nan nan
Wind_Direction
266 263 253 238 231 235 240 243 244 242 239 236 237 237 240 242 244 249 252 255 258 261 262 263 262 261 262 265 275 282 283 291 305 289 288 283 291 288 258 247 252 255 265 225 284 274 274 276 nan 268 261 nan nan nan nan nan nan nan nan nan nan nan nan
257 252 244 237 236 238 245 245 247 246 242 237 233 236 236 241 245 249 250 254 257 259 258 257 256 259 269 277 285 288 293 295 294 285 278 280 277 275 281 267 262 263 259 242 261 258 277 282 283 278 nan nan nan nan nan nan nan nan nan nan nan nan nan
248 246 245 244 242 246 253 252 251 249 244 239 235 235 238 243 247 250 253 255 256 256 252 250 252 258 267 277 288 289 292 295 289 290 283 268 269 269 271 266 270 271 266 262 266 267 268 270 288 294 nan 293 nan nan nan nan nan nan nan nan nan nan nan
253 252 250 249 249 254 260 257 254 249 243 241 238 239 242 249 252 253 253 251 248 248 249 250 253 259 266 271 277 285 288 291 287 288 279 269 271 271 268 265 268 278 273 280 280 279 271 275 287 287 283 nan nan nan nan nan nan nan nan nan nan nan nan
253 252 255 256 259 266 266 261 253 248 243 241 241 244 248 255 258 257 255 252 248 247 248 247 250 255 260 264 270 274 281 287 286 289 284 279 283 272 269 261 261 262 260 266 277 277 277 283 291 293 nan nan nan nan nan nan nan nan nan nan nan nan nan
250 254 256 259 262 266 266 261 257 252 246 246 244 248 252 261 261 261 259 254 249 244 243 247 252 258 262 265 267 273 277 284 287 291 287 283 286 277 272 267 263 265 259 263 273 278 277 286 297 301 nan nan nan nan nan nan nan nan nan nan nan nan nan
247 252 254 260 263 264 262 259 256 253 251 250 250 251 255 259 254 252 255 252 247 247 247 250 256 260 263 265 267 266 267 267 275 288 286 290 285 276 269 270 271 260 253 265 277 285 293 301 302 303 nan nan nan nan nan nan nan nan nan nan nan nan nan
248 251 255 258 263 260 254 256 253 250 253 251 250 251 252 252 253 253 254 254 252 251 251 256 nan nan 269 268 264 260 256 257 270 276 279 285 280 274 270 266 266 259 258 271 284 292 301 303 306 309 nan nan nan nan nan nan nan nan nan nan nan nan nan
252 254 253 255 256 253 253 255 254 251 250 251 248 250 250 255 261 261 257 254 nan nan nan nan nan nan nan 270 nan 258 nan 255 266 270 269 270 265 263 262 258 265 264 264 275 287 294 301 301 305 309 310 nan nan nan nan nan nan nan nan nan nan nan nan
259 263 261 261 258 251 252 253 254 253 252 251 251 nan 261 262 263 266 264 nan nan nan nan nan nan nan nan nan nan nan nan nan nan nan nan 261 260 260 258 267 264 267 271 277 283 293 294 300 303 304 302 nan nan nan nan nan nan nan nan nan nan nan nan
260 263 262 260 256 256 255 253 252 nan nan nan nan nan nan nan nan nan nan nan nan nan nan nan nan nan nan nan nan nan nan nan nan nan nan nan nan 257 261 267 270 275 277 286 288 290 292 296 298 297 294 nan nan nan nan nan nan nan nan nan nan nan nan
262 265 263 260 259 260 261 256 253 249 nan nan nan nan nan nan nan nan nan nan nan nan nan nan nan nan nan nan nan nan nan nan nan nan nan nan nan nan 269 273 274 276 280 282 283 286 289 294 294 293 nan nan nan 286 nan nan nan nan nan nan nan nan nan
273 271 269 268 264 263 262 256 nan nan 258 nan nan nan nan nan nan nan nan nan nan nan nan nan nan nan nan nan nan nan nan nan nan nan nan nan nan nan 272 276 277 276 277 278 281 285 288 290 291 nan nan nan nan 279 nan nan nan nan nan nan nan nan nan
265 263 268 269 266 259 253 249 246 252 nan nan nan nan nan nan nan nan nan nan nan nan nan nan nan nan nan nan nan nan nan nan nan nan nan nan nan nan nan 272 271 270 273 277 278 282 286 289 291 288 285 nan nan nan nan nan nan nan nan nan nan nan nan
258 258 261 257 254 252 247 nan nan nan nan nan nan nan nan nan nan nan nan nan nan nan nan nan nan nan nan nan nan nan nan nan nan nan nan nan nan nan nan nan nan 272 273 274 275 282 282 286 292 291 283 278 nan nan nan nan nan nan nan nan nan nan nan
250 257 259 256 256 253 246 nan nan nan nan nan nan nan nan nan nan nan nan nan nan nan nan nan nan nan nan nan nan nan nan nan nan nan nan nan nan nan nan nan nan nan nan 270 269 266 268 276 277 nan 272 269 267 270 nan nan nan nan nan nan nan nan nan
254 258 261 259 260 252 nan nan nan nan nan nan nan nan nan nan nan nan nan nan nan nan nan nan nan nan nan nan nan nan nan nan nan nan nan nan nan nan nan nan nan nan nan 266 nan 266 269 270 268 263 263 262 260 261 264 nan nan nan nan nan nan nan nan
252 258 262 259 258 250 nan nan nan nan nan nan nan nan nan nan nan nan nan nan nan nan nan nan nan nan nan nan nan nan nan nan nan nan nan nan nan nan nan nan nan nan nan nan nan nan nan nan nan nan nan nan nan 261 nan nan nan nan nan nan nan nan nan
248 257 258 255 251 nan nan nan nan nan nan nan nan nan nan nan nan nan nan nan nan nan nan nan nan nan nan nan nan nan nan nan nan nan nan nan nan nan nan nan nan nan nan nan nan 256 nan nan nan nan nan nan nan nan nan nan nan nan nan nan nan nan nan
240 249 253 nan nan nan nan nan nan nan nan nan nan nan nan nan nan nan nan nan nan nan nan nan nan nan nan nan nan nan nan nan nan nan nan nan nan nan nan nan nan nan nan nan nan 247 249 nan nan nan nan nan nan nan nan nan nan nan nan nan nan nan nan
246 252 nan nan nan nan nan nan nan nan nan nan nan nan nan nan nan nan nan nan nan nan nan nan nan nan nan nan nan nan nan nan nan nan nan nan nan nan nan nan nan nan nan nan nan 248 250 252 nan nan nan nan nan nan nan nan nan nan nan nan nan nan nan
nan nan nan nan nan nan nan nan nan nan nan nan nan nan nan nan nan nan nan nan nan nan nan nan nan nan nan nan nan nan nan nan nan nan nan nan nan nan nan nan nan nan 254 nan nan nan nan 255 258 nan nan nan nan nan nan nan nan nan nan nan nan nan nan
nan nan nan nan nan nan nan nan nan nan nan nan nan nan nan nan nan nan nan nan nan nan nan 252 nan nan nan nan nan nan nan 249 nan nan 259 259 259 258 nan 256 254 nan nan nan nan nan nan nan nan 252 262 nan nan nan nan nan nan nan nan nan nan nan nan
nan nan nan nan nan nan nan nan nan nan nan nan nan nan nan nan nan nan nan nan nan nan 243 nan nan nan nan nan nan 251 253 256 259 261 262 261 260 261 260 260 257 259 nan nan nan nan nan nan nan nan nan nan nan nan nan nan nan nan nan nan nan nan nan
nan nan nan nan nan nan nan nan nan nan nan nan nan nan nan nan nan nan nan nan nan nan nan nan nan nan nan nan nan nan nan 253 259 261 262 260 257 256 257 257 257 257 257 259 260 nan nan nan nan nan nan nan nan nan nan 270 277 283 nan nan nan nan nan
nan nan nan nan nan nan nan nan nan nan nan nan nan nan nan nan nan nan nan nan nan nan nan nan nan nan nan nan nan nan nan nan nan 255 257 258 257 255 254 254 256 258 259 nan nan 267 267 268 267 nan nan nan nan nan nan nan nan 273 280 nan nan nan nan
nan nan nan nan nan nan nan nan nan nan nan nan nan nan nan nan nan nan nan nan nan nan nan nan nan nan nan nan nan nan nan nan 254 252 251 252 252 251 251 250 251 255 259 264 266 267 267 267 269 271 273 276 279 282 282 nan nan nan nan nan 285 288 290
nan nan nan nan nan nan nan nan nan nan nan nan nan nan nan nan nan nan nan nan nan nan nan nan nan nan nan nan nan nan nan nan nan 254 253 253 253 253 253 254 255 255 258 262 265 266 266 268 271 273 277 280 282 nan 282 nan nan nan nan nan nan nan 289
nan nan nan nan nan nan nan nan nan nan nan nan nan nan nan nan nan nan nan nan nan nan nan nan nan nan nan nan nan nan nan nan 254 255 257 260 260 260 260 260 260 261 262 263 266 nan nan nan 270 273 277 279 280 280 nan nan nan nan nan nan nan nan nan
nan nan nan nan nan nan nan nan nan nan nan nan nan nan nan nan nan nan nan nan nan nan nan nan nan nan nan nan nan nan nan nan nan 257 259 261 263 265 265 264 262 260 261 261 265 nan nan nan nan 277 279 281 282 283 286 nan nan nan nan nan nan nan nan
nan nan nan nan nan nan nan nan nan nan nan nan nan nan nan nan nan nan nan nan nan nan nan nan nan nan nan nan nan nan nan nan nan nan 260 263 264 265 266 267 262 261 260 260 265 270 272 274 274 278 281 282 284 286 286 284 283 nan nan nan nan nan nan
nan nan nan nan nan nan nan nan nan nan nan nan nan nan nan nan nan nan nan nan nan nan nan nan nan nan nan nan nan nan nan nan nan nan nan nan nan 262 262 nan 271 265 261 260 262 268 272 274 272 276 280 280 281 282 282 284 284 nan nan nan nan nan nan
nan nan nan nan nan nan nan nan nan nan nan nan nan nan nan nan nan nan nan nan nan nan nan nan nan nan nan nan nan nan nan nan nan nan nan nan nan nan nan 261 nan nan nan 261 262 264 270 275 275 277 280 281 280 280 278 280 281 nan nan nan nan nan nan
nan nan nan nan nan nan nan nan nan nan nan nan nan nan nan nan nan nan nan nan nan nan nan nan nan nan nan nan nan nan nan nan nan nan nan nan nan nan nan nan nan nan nan nan nan nan nan 273 276 277 nan nan 282 277 nan nan nan nan nan nan nan nan nan
nan nan nan nan nan nan nan nan nan nan nan nan nan nan nan nan nan nan nan nan nan nan nan nan nan nan nan nan nan nan nan nan nan nan nan nan nan nan nan nan nan nan nan nan nan nan nan 273 277 277 280 nan nan nan nan nan nan nan nan nan nan nan nan
nan nan nan nan nan nan nan nan nan nan nan nan nan nan nan nan nan nan nan nan nan nan nan nan nan nan nan nan nan nan nan nan nan nan nan nan nan nan nan nan nan nan nan nan nan nan nan nan 277 279 281 nan nan 283 nan nan nan nan nan nan nan nan nan
nan nan nan nan nan nan nan nan nan nan nan nan nan nan nan nan nan nan nan nan nan nan nan nan nan nan nan nan nan nan nan nan nan nan nan nan nan nan nan nan nan nan nan nan nan nan nan nan nan nan nan nan nan 282 281 279 280 280 nan nan nan nan nan